This demonstration page uses our WeatherBlox Daily Observations layout. Learn more.

Left ArrowRight Arrow

Hourly Observations for September 27, 2021

Temp ( °F °C ) Dew Point ( °F °C ) Humidity (%) Winds ( mph kmh ) Pressure ( in mb ) Visibility ( mi km ) Precip ( " mm )
12:15 am 00:15 Clear 59 15.2 53 11.4 78 78 N N/A 29.77 1008 10 16 N/A
12:35 am 00:35 Clear 59 15.1 52 11.1 77 77 N N/A 29.77 1008 10 16 N/A
12:55 am 00:55 Clear 58 14.3 51 10.5 78 78 WNW 6 9 29.78 1008 10 16 N/A
1:15 am 01:15 Clear 65 18.4 48 9 54 54 NW 7 11 29.74 1007 10 16 N/A
1:35 am 01:35 Clear 64 17.7 48 8.9 57 57 NW 6 9 29.76 1008 10 16 N/A
1:55 am 01:55 Clear 63 17.2 48 8.7 58 58 NNW 7 11 29.75 1007 10 16 N/A
2:15 am 02:15 Clear 62 16.4 48 9 62 62 NW 6 9 29.77 1008 10 16 N/A
2:35 am 02:35 Clear 62 16.4 48 8.7 61 61 NNW 7 11 29.77 1008 10 16 N/A
2:55 am 02:55 Clear 60 15.8 48 8.7 63 63 NNW 6 9 29.77 1008 10 16 N/A
3:15 am 03:15 Clear 59 15.1 48 8.9 67 67 NW 5 7 29.78 1008 10 16 N/A
3:35 am 03:35 Clear 58 14.7 48 8.8 68 68 NNW 5 7 29.78 1009 10 16 N/A
3:55 am 03:55 Clear 58 14.7 48 8.9 68 68 NNW 3 6 29.78 1009 10 16 N/A
4:15 am 04:15 Clear 57 14.1 48 8.8 71 71 NW 5 7 29.79 1009 10 16 N/A
4:35 am 04:35 Clear 57 13.7 48 8.8 72 72 NW 6 9 29.80 1009 10 16 N/A
4:55 am 04:55 Clear 56 13.5 48 8.7 73 73 NNW 3 6 29.80 1009 10 16 N/A
5:15 am 05:15 Clear 55 13 47 8.6 75 75 N N/A 29.81 1009 10 16 N/A
5:35 am 05:35 Clear 56 13.3 47 8.5 73 73 NW 3 6 29.81 1010 10 16 N/A
5:55 am 05:55 Clear 55 13 47 8.6 75 75 NW 5 7 29.82 1010 10 16 N/A
6:15 am 06:15 Clear 55 12.5 46 8 74 74 N N/A 29.82 1010 10 16 N/A
6:35 am 06:35 Clear 56 13.3 47 8.3 72 72 NNW 7 11 29.81 1010 10 16 N/A
6:55 am 06:55 Clear 56 13.6 46 8 69 69 NNW 3 6 29.81 1010 10 16 N/A
7:15 am 07:15 Clear 55 12.6 47 8.1 74 74 NNW 7 11 29.83 1010 10 16 N/A
7:35 am 07:35 Sunny 53 11.5 46 8 79 79 NNW 3 6 29.85 1011 10 16 N/A
7:55 am 07:55 Sunny 53 11.9 47 8.2 78 78 NNW 5 7 29.85 1011 10 16 N/A
8:15 am 08:15 Sunny 55 12.6 47 8.5 76 76 N N/A 29.84 1010 10 16 N/A
8:35 am 08:35 Sunny 57 14 48 9 72 72 N N/A 29.83 1010 10 16 N/A
8:55 am 08:55 Sunny 60 15.8 50 10.1 69 69 N N/A 29.82 1010 10 16 N/A
9:15 am 09:15 Sunny 65 18.3 50 9.9 58 58 N 3 6 29.80 1009 10 16 N/A
9:35 am 09:35 Sunny 69 20.3 50 10.1 52 52 NNE 3 6 29.81 1009 10 16 N/A
9:55 am 09:55 Sunny 70 21.3 51 10.3 50 50 N 5 7 29.80 1009 10 16 N/A
10:15 am 10:15 Sunny 73 22.8 51 10.6 46 46 NNE 5 7 29.78 1009 10 16 N/A
10:35 am 10:35 Sunny 76 24.6 52 11 43 43 ENE 5 7 29.77 1008 10 16 N/A
10:55 am 10:55 Sunny 80 26.4 51 10.6 37 37 ENE 6 9 29.77 1008 10 16 N/A
11:15 am 11:15 Sunny 82 28 50 10 32 32 E 8 13 29.75 1008 10 16 N/A
11:34 am 11:34 Sunny 82 28 50 10 32 32 E 8 13 29.75 1008 10 16 N/A
11:55 am 11:55 Sunny 84 29 50 10 31 31 ENE 7 11 29.75 1007 10 16 N/A
12:15 pm 12:15 Sunny 86 30.2 49 9.2 27 27 ENE 9 15 29.74 1007 10 16 N/A
12:36 pm 12:36 Sunny 88 31 46 8 24 24 ENE 12 19 29.73 1007 10 16 N/A
12:55 pm 12:55 Sunny 90 32 48 9 24 24 E 8 13 29.72 1007 10 16 N/A
1:15 pm 13:15 Sunny 90 32 48 9 24 24 E 10 17 29.71 1006 10 16 N/A
1:35 pm 13:35 Sunny 90 32 46 8 22 22 E 9 15 29.71 1006 10 16 N/A
1:56 pm 13:56 Sunny 91 33 45 7 20 20 E 10 17 29.70 1006 10 16 N/A
2:15 pm 14:15 Sunny 91 33 46 8 21 21 ENE 8 13 29.69 1005 10 16 N/A
2:35 pm 14:35 Sunny 92 33.3 47 8.5 22 22 E 10 17 29.68 1005 10 16 N/A
2:55 pm 14:55 Sunny 92 33.6 46 7.6 20 20 E 10 17 29.67 1005 10 16 N/A
3:15 pm 15:15 Sunny 92 33.6 45 7.3 19 19 ESE 8 13 29.67 1005 10 16 N/A
3:35 pm 15:35 Sunny 92 33.5 45 7.1 19 19 E 12 19 29.67 1005 10 16 N/A
3:55 pm 15:55 Sunny 93 33.7 45 7.1 19 19 E 9 15 29.66 1004 10 16 N/A
4:15 pm 16:15 Sunny 92 33.6 45 7.4 20 20 E 14 22 29.66 1004 10 16 N/A
4:35 pm 16:35 Sunny 92 33.5 46 7.8 20 20 ESE 12 19 29.66 1004 10 16 N/A
4:55 pm 16:55 Sunny 92 33.5 45 7.4 20 20 ESE 13 20 29.65 1004 10 16 N/A
5:15 pm 17:15 Sunny 92 33.1 46 7.8 21 21 E 13 20 29.66 1005 10 16 N/A
5:35 pm 17:35 Sunny 91 32.9 45 7.1 20 20 ESE 13 20 29.67 1005 10 16 N/A
5:55 pm 17:55 Sunny 90 32.2 46 7.5 21 21 ESE 14 22 29.67 1005 10 16 N/A
6:15 pm 18:15 Sunny 88 31.3 46 7.8 23 23 ESE 12 19 29.68 1005 10 16 N/A
6:35 pm 18:35 Sunny 86 29.9 47 8.1 26 26 E 9 15 29.70 1006 10 16 N/A
6:55 pm 18:55 Sunny 81 27.2 48 9.1 32 32 E 8 13 29.72 1006 10 16 N/A
7:15 pm 19:15 Sunny 79 26 48 8.7 34 34 ESE 8 13 29.73 1007 10 16 N/A
7:35 pm 19:35 Clear 72 22.4 49 9.4 44 44 ESE 6 9 29.77 1008 10 16 N/A
7:55 pm 19:55 Clear 71 21.4 48 9.1 46 46 ESE 7 11 29.78 1008 10 16 N/A
8:15 pm 20:15 Clear 68 19.9 49 9.6 52 52 ESE 8 13 29.79 1009 10 16 N/A
8:35 pm 20:35 Clear 67 19.5 50 10 54 54 E 8 13 29.79 1009 10 16 N/A
8:55 pm 20:55 Clear 69 20.3 50 9.9 51 51 ESE 9 15 29.79 1009 10 16 N/A
9:15 pm 21:15 Clear 66 18.7 50 10 57 57 ESE 7 11 29.80 1009 10 16 N/A
9:35 pm 21:35 Clear 65 18.5 51 10.5 60 60 ESE 9 15 29.81 1009 10 16 N/A
9:55 pm 21:55 Clear 66 19 51 10.5 58 58 ESE 8 13 29.81 1009 10 16 N/A
10:15 pm 22:15 Clear 65 18.2 51 10.8 62 62 ESE 9 15 29.81 1010 10 16 N/A
10:35 pm 22:35 Clear 65 18.3 52 11 63 63 ESE 9 15 29.81 1010 10 16 N/A
10:55 pm 22:55 Clear 67 19.2 52 11.1 60 60 ESE 12 19 29.80 1009 10 16 N/A
11:15 pm 23:15 Clear 68 20.2 52 11.2 56 56 ESE 9 15 29.80 1009 10 16 N/A
11:35 pm 23:35 Clear 68 20 52 11.2 57 57 ESE 7 11 29.79 1009 10 16 N/A
11:55 pm 23:55 Clear 66 18.7 52 11.2 62 62 SE 7 11 29.80 1009 10 16 N/A

Powered by AerisWeather